Location: Cointrin
(46.2167°N, 6.1167°E)
Time: 07:02:12
(UTC+00:00)

Cosmos 1758 Rocket - Pass Details

Date: 08 February 2023
Orbit: 601 x 634 km, 82.5° (Epoch: 26 March)

Event Time Altitude Azimuth Distance (km) Brightness Sun altitude
Rises 18:45:22 0° 184° (S) 2,849 7.0 -20.3°
Reaches altitude 10° 18:47:34 10° 183° (S) 1,954 6.2 -20.6°
Maximum altitude 18:51:53 80° 98° (E) 628 3.4 -21.4°
Drops below altitude 10° 18:56:18 10° 11° (N) 1,991 6.1 -22.2°
Sets 18:58:33 0° 11° (N) 2,907 6.9 -22.5°
